ICEYE-X30

导读

ICEYE-X30是芬兰冰眼公司研发的合成孔径雷达卫星,于2023年6月12日由美国发射升空,属于冰眼第三代SAR卫星序列。该卫星搭载先进X波段SAR系统,最高分辨率可达25厘米,支持驻留、条带、扫描等多种成像模式,可实现全天候、全时段对地观测。它主要服务于自然灾害监测、海上态势感知、海冰观测、基础设施监控等领域,能为用户提供及时精准的遥感数据,补充了全球商业雷达卫星星座的监测能力。

基本信息
目录编号:
56947
目录名称:
ICEYE-X30
国际标识:
2023-084R
轨道中心:
EARTH
卫星名称:
ICEYE-X30
卫星全名:
--
卫星状态:
在轨 (已飞行1096 天)
发射日期:
2023-06-12 UTC
国别 :
美国 (US)
星等 :
--
轨道信息
数据来源 国际轨道数据
星历时间: 2026-05-23T14:16:28+0800
轨道信息已过期20天
半长轴: 6544.304km
偏心率: 0.0013986
轨道倾角: 97.543°
近地点辐角 272.572°
升交点赤经 302.575°
平近点角 87.397°
近地点: 157.014km
远地点: 175.32km
周期: 87.812分钟
每日圈数: 16.398631
详细信息
使用方式:
暂无
2D轨道图
3D轨道图
轨道高度分析图
轨道倾角分析图
轨道综合分析图
查看轨道综合分析图